Aérodrome :
LOGIN :

S'inscrire | Disclaimer

   EN    FR    IT 

 










Légende :    VFR   VFR Marginal   IFR   IFR Intensif   IFR Très Intensif
Visi : 
Plafond : 
>= 8 km
>= 3000ft
5 à 8 km
1000 à 3000 ft
1500m à 5 km
500 à 1000 ft
800 à 1500m
200 à 500 ft
< 800m
< 200 ft
Symboles :   Orages  Brouillard  Fortes neiges  Fortes précipitations  Vent > 20 kt
SIGMETs :   Divers  Orages  Givrage  Turbulence  Onde Orograph.  Cendres Volcan.






- Altitude de l'aérodrome : 512 ft
- Code IATA : URO


LFOP - Rouen Vallée de Seine

DERNIER METAR :
  • 221030Z AUTO 09010KT 050V120 CAVOK 12/02 Q1024 NOSIG

METARs EXPIRÉS :
  • 221000Z AUTO 08010KT 9999 FEW015 12/03 Q1024 NOSIG
  • 220930Z AUTO 07010KT CAVOK 11/03 Q1024 NOSIG
  • 220900Z AUTO 07010KT 050V110 CAVOK 10/03 Q1023 NOSIG
  • 220830Z AUTO 08011KT CAVOK 09/03 Q1023 NOSIG
  • 220800Z AUTO 09011KT CAVOK 08/02 Q1023 NOSIG

TAF TAF LFOP
Valide du 22 à 06h jusqu'au 23 à 06h UTC


220500Z 2206/2306 08010KT CAVOK
ATIS : +33 2 35 80 80 34
Météo : +33 2 32 86 52 80



MET'MAP, la Météo Aéronautique d'un coup d'oeil ! - Copyright ORBIFLY Décembre 2007 - Disclaimer

ORBIFLY MET'MAP TEAM :

Programmation & Développement : Alexandra Zaïnal
Sur une idée originale de : Baudouin d'Aumeries
Assistance à la programmation : Marc-Olivier Méhu
Soutien technique & logistique : Manuel Goepfert

Contact : metmap@orbifly.com




SOURCES & CREDITS :

   NOAA